TimeEST,TemperatureF,Dew PointF,Humidity,Sea Level PressureIn,VisibilityMPH,Wind Direction,Wind SpeedMPH,Gust SpeedMPH,PrecipitationIn,Events,Conditions,WindDirDegrees,DateUTC
12:00 AM,65,59,76,29.95,,SE,9.2,,,,,130,2013-06-15 14:00:00
12:00 AM,64.4,59.0,83,29.95,-9999.0,SE,9.2,-,N/A,,Clear,130,2013-06-15 14:00:00
12:30 AM,66.2,59.0,78,29.92,-9999.0,ESE,10.4,-,N/A,,Clear,120,2013-06-15 14:30:00
1:00 AM,65,60,77,29.94,,ESE,10.4,,,,,120,2013-06-15 15:00:00
1:00 AM,64.4,59.0,83,29.92,-9999.0,ESE,10.4,-,N/A,,Clear,120,2013-06-15 15:00:00
1:30 AM,64.4,59.0,83,29.92,-9999.0,SE,8.1,-,N/A,,Clear,130,2013-06-15 15:30:00
2:00 AM,64.4,59.0,83,29.92,-9999.0,SSE,9.2,-,N/A,,Clear,150,2013-06-15 16:00:00
2:30 AM,64.4,59.0,83,29.92,-9999.0,SE,10.4,-,N/A,,Clear,130,2013-06-15 16:30:00
3:00 AM,64,60,82,29.91,,ESE,10.4,,,,,120,2013-06-15 17:00:00
3:00 AM,64.4,59.0,83,29.89,-9999.0,ESE,10.4,-,N/A,,Clear,120,2013-06-15 17:00:00
3:30 AM,62.6,59.0,88,29.89,-9999.0,SE,9.2,-,N/A,,Clear,140,2013-06-15 17:30:00
4:00 AM,64,59,77,29.92,,SE,11.5,,,,,130,2013-06-15 18:00:00
4:00 AM,64.4,59.0,83,29.89,-9999.0,SE,11.5,-,N/A,,Clear,130,2013-06-15 18:00:00
4:30 AM,62.6,59.0,88,29.92,-9999.0,SE,9.2,-,N/A,,Clear,130,2013-06-15 18:30:00
5:00 AM,62.6,59.0,88,29.92,-9999.0,SE,10.4,-,N/A,,Clear,140,2013-06-15 19:00:00
5:30 AM,62.6,59.0,88,29.92,-9999.0,SE,10.4,-,N/A,,Clear,140,2013-06-15 19:30:00
6:00 AM,63,59,82,29.93,19,SE,9.2,,,,Partly Cloudy,140,2013-06-15 20:00:00
6:00 AM,62.6,59.0,88,29.92,6.2,SE,9.2,-,N/A,,Scattered Clouds,130,2013-06-15 20:00:00
6:30 AM,62.6,59.0,88,29.92,6.2,SSE,11.5,-,N/A,,Scattered Clouds,150,2013-06-15 20:30:00
7:00 AM,65,58,73,29.94,,SE,10.4,,,,,140,2013-06-15 21:00:00
7:00 AM,64.4,59.0,83,29.92,6.2,SE,10.4,-,N/A,,Mostly Cloudy,140,2013-06-15 21:00:00
7:30 AM,66.2,59.0,78,29.92,6.2,SE,10.4,-,N/A,,Scattered Clouds,140,2013-06-15 21:30:00
8:00 AM,69.8,57.2,64,29.95,6.2,South,10.4,-,N/A,,Mostly Cloudy,170,2013-06-15 22:00:00
8:30 AM,71.6,57.2,60,29.95,6.2,South,8.1,-,N/A,,Mostly Cloudy,170,2013-06-15 22:30:00
9:00 AM,72,58,52,29.96,19,South,9.2,,,,Partly Cloudy,170,2013-06-15 23:00:00
9:00 AM,71.6,59.0,64,29.95,6.2,South,9.2,-,N/A,,Mostly Cloudy,170,2013-06-15 23:00:00
9:30 AM,73.4,59.0,61,29.95,6.2,South,12.7,-,N/A,,Mostly Cloudy,180,2013-06-15 23:30:00
10:00 AM,74,59,49,29.96,,South,12.7,,,,,180,2013-06-16 00:00:00
10:00 AM,73.4,59.0,61,29.95,6.2,South,12.7,-,N/A,,Mostly Cloudy,180,2013-06-16 00:00:00
10:30 AM,75.2,59.0,57,29.95,6.2,South,12.7,-,N/A,,Mostly Cloudy,170,2013-06-16 00:30:00
11:00 AM,75.2,60.8,61,29.95,6.2,South,12.7,-,N/A,,Mostly Cloudy,170,2013-06-16 01:00:00
11:30 AM,75.2,60.8,61,29.92,6.2,South,11.5,-,N/A,,Mostly Cloudy,170,2013-06-16 01:30:00
12:00 PM,77,60,46,29.91,19,SSE,10.4,,,,Partly Cloudy,160,2013-06-16 02:00:00
12:00 PM,77.0,60.8,57,29.89,6.2,SSE,10.4,-,N/A,,Overcast,160,2013-06-16 02:00:00
12:30 PM,77.0,60.8,57,29.89,6.2,SE,17.3,-,N/A,,Mostly Cloudy,140,2013-06-16 02:30:00
1:00 PM,77,60,46,29.88,,SE,16.1,,,,,130,2013-06-16 03:00:00
1:00 PM,77.0,60.8,57,29.86,6.2,SE,16.1,-,N/A,,Mostly Cloudy,130,2013-06-16 03:00:00
1:30 PM,77.0,60.8,57,29.86,6.2,SE,15.0,-,N/A,,Mostly Cloudy,130,2013-06-16 03:30:00
2:00 PM,77.0,62.6,61,29.83,6.2,SE,12.7,-,N/A,,Mostly Cloudy,130,2013-06-16 04:00:00
2:30 PM,77.0,62.6,61,29.83,6.2,SE,12.7,-,N/A,,Mostly Cloudy,130,2013-06-16 04:30:00
3:00 PM,76,62,53,29.84,19,SE,13.8,,,,Partly Cloudy,130,2013-06-16 05:00:00
3:00 PM,77.0,62.6,61,29.83,6.2,SE,13.8,-,N/A,,Mostly Cloudy,130,2013-06-16 05:00:00
3:30 PM,77.0,62.6,61,29.83,6.2,SE,12.7,-,N/A,,Mostly Cloudy,130,2013-06-16 05:30:00
4:00 PM,75,62,55,29.83,,SE,13.8,,,,,130,2013-06-16 06:00:00
4:00 PM,75.2,62.6,65,29.83,6.2,SE,13.8,-,N/A,,Scattered Clouds,130,2013-06-16 06:00:00
4:30 PM,75.2,62.6,65,29.83,6.2,SE,11.5,-,N/A,,Scattered Clouds,130,2013-06-16 06:30:00
5:00 PM,75.2,62.6,65,29.83,6.2,SE,10.4,-,N/A,,Scattered Clouds,130,2013-06-16 07:00:00
5:30 PM,73.4,62.6,69,29.83,6.2,SE,11.5,-,N/A,,Scattered Clouds,140,2013-06-16 07:30:00
6:00 PM,71,63,68,29.86,,SE,12.7,,,,,140,2013-06-16 08:00:00
6:00 PM,71.6,62.6,73,29.86,6.2,SE,12.7,-,N/A,,Scattered Clouds,140,2013-06-16 08:00:00
6:30 PM,69.8,62.6,78,29.86,6.2,South,5.8,-,N/A,,Scattered Clouds,170,2013-06-16 08:30:00
7:00 PM,69,63,76,29.89,,South,8.1,,,,,170,2013-06-16 09:00:00
7:00 PM,69.8,62.6,78,29.89,6.2,South,8.1,-,N/A,,Scattered Clouds,170,2013-06-16 09:00:00
7:30 PM,69.8,62.6,78,29.89,6.2,South,8.1,-,N/A,,Partly Cloudy,180,2013-06-16 09:30:00
8:00 PM,69.8,62.6,78,29.89,6.2,South,8.1,-,N/A,,Scattered Clouds,180,2013-06-16 10:00:00
8:30 PM,69.8,62.6,78,29.89,6.2,South,9.2,-,N/A,,Scattered Clouds,180,2013-06-16 10:30:00
9:00 PM,69,62,72,29.91,,South,8.1,,,,,180,2013-06-16 11:00:00
9:00 PM,69.8,62.6,78,29.92,6.2,South,8.1,-,N/A,,Mostly Cloudy,180,2013-06-16 11:00:00
9:30 PM,69.8,62.6,78,29.92,6.2,South,8.1,-,N/A,,Mostly Cloudy,190,2013-06-16 11:30:00
10:00 PM,70,62,67,29.93,,South,8.1,,,,,180,2013-06-16 12:00:00
10:00 PM,69.8,60.8,73,29.92,6.2,South,8.1,-,N/A,,Mostly Cloudy,180,2013-06-16 12:00:00
10:30 PM,69.8,60.8,73,29.92,6.2,South,8.1,-,N/A,,Mostly Cloudy,190,2013-06-16 12:30:00
11:00 PM,69.8,60.8,73,29.92,6.2,South,9.2,-,N/A,,Mostly Cloudy,190,2013-06-16 13:00:00
11:30 PM,69.8,60.8,73,29.89,6.2,South,9.2,-,N/A,,Mostly Cloudy,180,2013-06-16 13:30:00